Home   Weather   Maputo   Past weeks

Flag for Mozambique Past Weather in Maputo, Mozambique — Yesterday and Last 2 Weeks

Now
75 °F

Passing clouds.


Feels Like: 75 °F
Forecast: 75 / 87 °F
Wind: 5 mph from West

Location: Maputo / Mavalane

Current Time: Jan 20, 2017 at 7:54:36 am

Latest Report: Jan 20, 2017 at 7:00 am


Visibility: N/A

Pressure: 29.83 "Hg

Humidity: 89%

Dew Point: 72 °F

Location of MaputoLocation

Past Weather in Maputo — Graph

°F

Maputo Temperature Yesterday

Maximum temperature yesterday: 91 °F (at 12:00 pm)
Minimum temperature yesterday: 68 °F (at 2:00 am)
Average temperature yesterday: 80 °F

High & Low Weather Summary for the Past Weeks

 TemperatureHumidityPressure
High99 °F (Jan 6, 2:00 pm)100% (Jan 16, 3:00 am)30.18 "Hg (Jan 16, 3:00 am)
Low66 °F (Jan 8, 5:00 am)38% (Jan 9, 1:00 pm)29.71 "Hg (Jan 7, 2:00 pm)
Average79 °F74%29.89 "Hg
* Reported Jan 5 7:00 am — Jan 20 6:00 am, Maputo, Weather by CustomWeather, © 2017

Note: Actual official high and low records may vary slightly from our data, if they occured in-between our weather recording intervals... More about our weather records

Advertising

Maputo Weather History for the Previous 24 Hours

Scroll right to see more
 ConditionsComfort  
Time TempWeatherWind HumidityBarometerVisibility
6:00 am
Fri, Jan 20
70 °FPassing clouds.1 mph94%29.83 "HgN/A
5:00 am68 °FPassing clouds.3 mph94%29.80 "HgN/A
4:00 am70 °FPassing clouds.6 mph94%29.80 "HgN/A
2:00 am72 °FPassing clouds.8 mph88%29.80 "HgN/A
12:00 am73 °FClear.6 mph83%29.80 "Hg10 mi
11:00 pm
Thu, Jan 19
75 °FClear.3 mph83%29.80 "Hg10 mi
9:00 pm77 °FClear.6 mph79%29.77 "Hg10 mi
8:00 pm77 °FClear.7 mph79%29.77 "Hg10 mi
7:00 pm79 °FClear.10 mph70%29.74 "Hg10 mi
5:00 pm86 °FSunny.14 mph52%29.71 "Hg10 mi
4:00 pm88 °FPassing clouds.13 mph46%29.74 "HgN/A
3:00 pm90 °FPassing clouds.12 mph46%29.74 "HgN/A
2:00 pm91 °FPassing clouds.9 mph41%29.77 "HgN/A
1:00 pm91 °FPassing clouds.9 mph41%29.77 "HgN/A
12:00 pm91 °FPassing clouds.3 mph46%29.80 "HgN/A
11:00 am88 °FPassing clouds.5 mph49%29.83 "HgN/A
10:00 am86 °FPassing clouds.7 mph52%29.86 "HgN/A
9:00 am82 °FPassing clouds.3 mph66%29.86 "HgN/A
8:00 am77 °FSunny.8 mph74%29.89 "Hg10 mi
7:00 am73 °FSunny.9 mph83%29.89 "Hg10 mi
Weather by CustomWeather, © 2017

See weather overviewHow to use our weather pages